CAPSAT

Last updated on Tue Sep 20 2022 00:02:06 GMT+0000 (Coordinated Universal Time)

1 49276U 98067SV 22261.25267187 .15378514 12594-4 22635-3 0 9999 2 49276 51.6193 197.3998 0002943 200.3799 159.7114 16.48644616 53449

Satellite not in orbit